GW1685 Weather Reports


time (UTC)temp
C
wind
direction
speed
KPH
gust
KPH
rain 1hr
cm
rain 24hr
cm
rain mn
cm
humidity
%
barometer
mb
20260502233832 17 229 12.9 14.5 0.00 0.00 0.00 42 1012.5
20260502233328 17 217 12.9 14.5 0.00 0.00 0.00 41 1012.3
20260502232825 18 250 17.7 22.5 0.00 0.00 0.00 40 1012.4
20260502232322 18 244 12.9 14.5 0.00 0.00 0.00 40 1012.4
20260502231818 17 211 9.7 12.9 0.00 0.00 0.00 40 1012.3
20260502231316 17 229 14.5 17.7 0.00 0.00 0.00 39 1012.2
20260502230814 17 236 11.3 12.9 0.00 0.00 0.00 40 1012.5
20260502230312 17 207 14.5 19.3 0.00 0.00 0.00 39 1012.6
20260502225808 17 244 8.0 9.7 0.00 0.00 0.00 40 1012.4
20260502225305 17 232 6.4 12.9 0.00 0.00 0.00 40 1012.7
20260502224802 17 218 12.9 17.7 0.00 0.00 0.00 40 1012.7
20260502224258 17 222 9.7 9.7 0.00 0.00 0.00 40 1012.8
20260502223756 17 240 11.3 14.5 0.00 0.00 0.00 39 1012.9
20260502223254 17 171 8.0 12.9 0.00 0.00 0.00 40 1012.8
20260502222751 17 164 6.4 9.7 0.00 0.00 0.00 39 1012.9
20260502222248 17 213 16.1 19.3 0.00 0.00 0.00 39 1012.8
20260502221743 17 218 11.3 12.9 0.00 0.00 0.00 39 1012.8
20260502221240 17 192 16.1 19.3 0.00 0.00 0.00 39 1012.7
20260502220737 17 286 16.1 19.3 0.00 0.00 0.00 39 1013.0
20260502220233 17 225 17.7 22.5 0.00 0.00 0.00 39 1013.0
20260502215730 17 219 6.4 12.9 0.00 0.00 0.00 39 1013.1
20260502215227 17 213 11.3 14.5 0.00 0.00 0.00 40 1013.2
20260502214725 17 217 8.0 9.7 0.00 0.00 0.00 40 1013.2
20260502214221 17 225 20.9 22.5 0.00 0.00 0.00 39 1013.3
20260502213719 17 174 11.3 12.9 0.00 0.00 0.00 40 1013.4
20260502213216 17 164 4.8 12.9 0.00 0.00 0.00 39 1013.5
20260502212714 17 223 11.3 12.9 0.00 0.00 0.00 39 1013.6
20260502212212 17 172 8.0 9.7 0.00 0.00 0.00 40 1013.7
20260502211708 17 217 16.1 17.7 0.00 0.00 0.00 38 1013.7
20260502211205 17 245 19.3 22.5 0.00 0.00 0.00 38 1013.7
20260502210702 17 204 16.1 19.3 0.00 0.00 0.00 39 1013.8
20260502210159 17 240 11.3 14.5 0.00 0.00 0.00 39 1014.1
20260502205656 17 220 14.5 19.3 0.00 0.00 0.00 39 1014.2
20260502205153 17 160 6.4 12.9 0.00 0.00 0.00 39 1014.3
20260502204650 17 127 11.3 14.5 0.00 0.00 0.00 39 1014.5
20260502204148 17 209 17.7 24.1 0.00 0.00 0.00 38 1014.4
20260502203644 17 247 17.7 19.3 0.00 0.00 0.00 38 1014.3
20260502203143 17 232 24.1 27.4 0.00 0.00 0.00 38 1014.4
20260502202637 17 228 6.4 8.0 0.00 0.00 0.00 37 1014.7
20260502202135 17 214 12.9 14.5 0.00 0.00 0.00 39 1014.9
20260502201632 17 237 22.5 30.6 0.00 0.00 0.00 36 1015.2
20260502201128 16 236 14.5 17.7 0.00 0.00 0.00 37 1015.1
20260502200624 16 273 25.7 32.2 0.00 0.00 0.00 38 1015.4
20260502200121 17 166 17.7 22.5 0.00 0.00 0.00 37 1015.2
20260502195620 17 175 8.0 9.7 0.00 0.00 0.00 38 1015.6
20260502195115 16 192 14.5 17.7 0.00 0.00 0.00 37 1015.7
20260502194612 16 259 16.1 19.3 0.00 0.00 0.00 37 1015.6
20260502194108 16 227 4.8 8.0 0.00 0.00 0.00 38 1015.9
20260502193605 16 247 19.3 24.1 0.00 0.00 0.00 37 1015.7
20260502193102 16 205 19.3 24.1 0.00 0.00 0.00 38 1016.0
20260502192558 16 222 14.5 17.7 0.00 0.00 0.00 38 1015.9
20260502192056 16 231 19.3 32.2 0.00 0.00 0.00 39 1016.1
20260502191552 16 230 16.1 19.3 0.00 0.00 0.00 39 1016.3
20260502191050 16 173 11.3 17.7 0.00 0.00 0.00 39 1016.3
20260502190547 15 250 17.7 17.7 0.00 0.00 0.00 40 1016.5
20260502190044 16 299 16.1 19.3 0.00 0.00 0.00 37 1016.7
20260502185539 16 229 14.5 19.3 0.00 0.00 0.00 39 1016.4
20260502185036 16 220 11.3 14.5 0.00 0.00 0.00 38 1016.6
20260502184532 16 256 12.9 17.7 0.00 0.00 0.00 39 1016.7
20260502184028 15 192 6.4 8.0 0.00 0.00 0.00 38 1016.8
20260502183524 15 217 14.5 19.3 0.00 0.00 0.00 39 1017.1
20260502183021 15 214 11.3 19.3 0.00 0.00 0.00 39 1017.0
20260502182515 16 254 14.5 17.7 0.00 0.00 0.00 40 1016.9
20260502182012 15 180 9.7 12.9 0.00 0.00 0.00 39 1016.9
20260502181510 15 193 11.3 12.9 0.00 0.00 0.00 38 1017.2
20260502181009 15 258 12.9 17.7 0.00 0.00 0.00 39 1017.1
20260502180505 15 221 27.4 30.6 0.00 0.00 0.00 38 1017.3
20260502170424 13 291 11.3 14.5 0.00 0.00 0.00 41 1018.4
20260502163907 12 276 9.7 12.9 0.00 0.00 0.00 40 1018.7
20260502163404 13 225 11.3 17.7 0.00 0.00 0.00 40 1018.8
20260502162902 12 231 12.9 17.7 0.00 0.00 0.00 41 1018.8
20260502162358 12 290 17.7 24.1 0.00 0.00 0.00 41 1019.1
20260502161855 12 142 6.4 9.7 0.00 0.00 0.00 41 1018.9
20260502161351 12 244 8.0 12.9 0.00 0.00 0.00 40 1019.1
20260502160849 12 264 11.3 14.5 0.00 0.00 0.00 40 1019.1
20260502160347 12 299 14.5 17.7 0.00 0.00 0.00 40 1019.3
20260502152322 11 211 6.4 9.7 0.00 0.00 0.00 44 1019.7
20260502151820 11 260 14.5 14.5 0.00 0.00 0.00 43 1019.7
20260502151316 11 280 9.7 12.9 0.00 0.00 0.00 44 1019.7
20260502150814 11 245 14.5 22.5 0.00 0.00 0.00 44 1019.8
20260502150310 11 215 6.4 8.0 0.00 0.00 0.00 46 1019.6
20260502130659 6 192 6.4 8.0 0.00 0.00 0.00 65 1020.4
20260502130157 6 196 8.0 8.0 0.00 0.00 0.00 67 1020.4
20260502123642 3 205 0.0 0.0 0.00 0.00 0.00 70 1020.4
20260502123139 3 146 1.6 3.2 0.00 0.00 0.00 72 1020.4
20260502122635 3 109 0.0 0.0 0.00 0.00 0.00 74 1020.4
20260502122132 2 121 0.0 0.0 0.00 0.00 0.00 75 1020.2
20260502121630 1 114 0.0 0.0 0.00 0.00 0.00 81 1020.6
20260502121127 1 102 0.0 0.0 0.00 0.00 0.00 87 1020.4
20260502120624 0 102 0.0 0.0 0.00 0.00 0.00 88 1020.6
20260502120121 0 101 0.0 0.0 0.00 0.00 0.00 89 1020.6
20260502115618 0 103 0.0 0.0 0.00 0.00 0.00 90 1020.8
20260502115114 0 102 0.0 0.0 0.00 0.00 0.00 90 1020.6
20260502114610 0 114 0.0 0.0 0.00 0.00 0.00 91 1020.6
20260502114108 0 104 0.0 0.0 0.00 0.00 0.00 92 1020.6
20260502113605 0 108 0.0 0.0 0.00 0.00 0.00 92 1020.5
20260502113104 -1 113 0.0 0.0 0.00 0.00 0.00 93 1020.7
20260502112601 -1 108 0.0 0.0 0.00 0.00 0.00 93 1020.7
20260502112058 -1 105 0.0 0.0 0.00 0.00 0.00 92 1020.7
20260502111556 -1 108 0.0 0.0 0.00 0.00 0.00 92 1020.6
20260502111053 -1 105 0.0 0.0 0.00 0.00 0.00 91 1020.4
20260502110550 -1 102 0.0 0.0 0.00 0.00 0.00 91 1020.5
20260502110048 -1 102 0.0 0.0 0.00 0.00 0.00 90 1020.7
20260502105545 -1 102 0.0 0.0 0.00 0.00 0.00 89 1020.5
20260502105043 -1 101 0.0 0.0 0.00 0.00 0.00 89 1020.4
20260502104539 0 108 0.0 0.0 0.00 0.00 0.00 88 1020.5
20260502104037 0 106 0.0 0.0 0.00 0.00 0.00 86 1020.5
20260502103535 0 116 0.0 0.0 0.00 0.00 0.00 86 1020.6
20260502103032 0 115 0.0 0.0 0.00 0.00 0.00 85 1020.4
20260502102528 0 128 0.0 0.0 0.00 0.00 0.00 85 1020.4
20260502102026 0 128 0.0 0.0 0.00 0.00 0.00 85 1020.5
20260502101523 0 128 0.0 0.0 0.00 0.00 0.00 85 1020.6
20260502101022 0 131 0.0 0.0 0.00 0.00 0.00 85 1020.5
20260502100520 0 118 0.0 0.0 0.00 0.00 0.00 85 1020.5
20260502091454 0 139 0.0 0.0 0.00 0.00 0.00 87 1020.2
20260502090952 0 127 0.0 0.0 0.00 0.00 0.00 87 1020.3
20260502090448 0 140 0.0 0.0 0.00 0.00 0.00 86 1020.3
20260502071343 2 143 0.0 0.0 0.00 0.00 0.00 81 1020.5
20260502070841 2 152 0.0 0.0 0.00 0.00 0.00 80 1020.4
20260502070339 2 155 1.6 3.2 0.00 0.00 0.00 77 1020.6
20260502065837 2 86 1.6 3.2 0.00 0.00 0.00 79 1020.6
20260502065335 2 109 0.0 3.2 0.00 0.00 0.00 78 1020.5
20260502064833 1 226 1.6 4.8 0.00 0.00 0.00 82 1020.9
20260502064331 0 160 3.2 4.8 0.00 0.00 0.00 87 1020.7
20260502063827 0 114 0.0 0.0 0.00 0.00 0.00 88 1020.8
20260502063325 0 115 0.0 0.0 0.00 0.00 0.00 88 1020.8
20260502062822 0 112 0.0 0.0 0.00 0.00 0.00 88 1020.6
20260502062320 0 105 0.0 0.0 0.00 0.00 0.00 88 1020.7
20260502061819 0 107 0.0 0.0 0.00 0.00 0.00 88 1020.7
20260502061316 0 107 0.0 0.0 0.00 0.00 0.00 88 1020.4
20260502060811 0 109 0.0 0.0 0.00 0.00 0.00 88 1020.6
20260502060307 0 103 0.0 0.0 0.00 0.00 0.00 87 1020.6
20260502055805 0 104 0.0 0.0 0.00 0.00 0.00 87 1020.5
20260502055305 0 111 0.0 0.0 0.00 0.00 0.00 87 1020.6
20260502054801 1 107 0.0 0.0 0.00 0.00 0.00 87 1020.8
20260502054259 0 106 0.0 0.0 0.00 0.00 0.00 88 1020.6
20260502053756 0 106 0.0 0.0 0.00 0.00 0.00 87 1020.8
20260502053253 0 100 0.0 0.0 0.00 0.00 0.00 86 1020.7
20260502052751 0 99 0.0 0.0 0.00 0.00 0.00 85 1020.7
20260502052249 0 99 0.0 0.0 0.00 0.00 0.00 85 1020.7
20260502051746 0 99 0.0 0.0 0.00 0.00 0.00 84 1020.5
20260502051245 1 103 0.0 0.0 0.00 0.00 0.00 84 1020.5
20260502050741 1 104 0.0 0.0 0.00 0.00 0.00 82 1020.5
20260502050237 1 98 0.0 0.0 0.00 0.00 0.00 81 1020.5
20260502045734 1 103 0.0 0.0 0.00 0.00 0.00 79 1020.4
20260502045231 2 103 0.0 0.0 0.00 0.00 0.00 78 1020.5
20260502044728 2 103 0.0 0.0 0.00 0.00 0.00 77 1020.4
20260502044224 2 108 0.0 0.0 0.00 0.00 0.00 75 1020.5
20260502043722 2 111 0.0 0.0 0.00 0.00 0.00 74 1020.6
20260502043219 2 109 0.0 0.0 0.00 0.00 0.00 73 1020.5
20260502042718 2 111 0.0 0.0 0.00 0.00 0.00 73 1020.4
20260502042216 3 103 0.0 0.0 0.00 0.00 0.00 72 1020.6
20260502041713 3 122 0.0 0.0 0.00 0.00 0.00 71 1020.7
20260502041211 3 110 0.0 0.0 0.00 0.00 0.00 69 1020.5
20260502040708 3 125 0.0 0.0 0.00 0.00 0.00 69 1020.6
20260502040204 3 108 0.0 0.0 0.00 0.00 0.00 69 1020.6
20260502035700 3 109 0.0 0.0 0.00 0.00 0.00 69 1020.5
20260502035157 3 100 0.0 0.0 0.00 0.00 0.00 68 1020.4
20260502034655 3 115 0.0 0.0 0.00 0.00 0.00 68 1020.6
20260502034153 3 104 0.0 0.0 0.00 0.00 0.00 66 1020.3
20260502033651 3 111 0.0 0.0 0.00 0.00 0.00 67 1020.6
20260502033149 4 111 0.0 0.0 0.00 0.00 0.00 67 1020.6
20260502032645 4 122 0.0 0.0 0.00 0.00 0.00 65 1020.3
20260502032141 4 133 0.0 0.0 0.00 0.00 0.00 64 1020.5
20260502031639 4 121 0.0 0.0 0.00 0.00 0.00 64 1020.5
20260502031136 5 107 0.0 0.0 0.00 0.00 0.00 62 1020.6
20260502030635 5 114 0.0 0.0 0.00 0.00 0.00 61 1020.8
20260502030133 5 122 0.0 0.0 0.00 0.00 0.00 60 1020.4
20260502025629 5 126 0.0 0.0 0.00 0.00 0.00 60 1020.6
20260502025128 5 117 0.0 0.0 0.00 0.00 0.00 59 1020.6
20260502024625 6 130 0.0 0.0 0.00 0.00 0.00 59 1020.4
20260502024123 6 135 0.0 0.0 0.00 0.00 0.00 59 1020.6
20260502023621 6 111 0.0 0.0 0.00 0.00 0.00 60 1020.6
20260502023118 6 107 0.0 0.0 0.00 0.00 0.00 61 1020.5
20260502022615 6 108 0.0 0.0 0.00 0.00 0.00 59 1020.4
20260502022112 7 123 0.0 0.0 0.00 0.00 0.00 60 1020.0
20260502021609 7 138 0.0 3.2 0.00 0.00 0.00 58 1020.1
20260502021106 7 112 0.0 0.0 0.00 0.00 0.00 56 1020.2
20260502020604 8 131 0.0 0.0 0.00 0.00 0.00 55 1020.3
20260502020100 8 80 0.0 0.0 0.00 0.00 0.00 55 1020.3
20260502015558 8 116 0.0 0.0 0.00 0.00 0.00 53 1020.3
20260502015054 8 99 0.0 0.0 0.00 0.00 0.00 52 1020.1
20260502014551 9 95 0.0 0.0 0.00 0.00 0.00 50 1020.2
20260502014048 9 111 0.0 0.0 0.00 0.00 0.00 51 1020.1
20260502013543 10 112 0.0 0.0 0.00 0.00 0.00 47 1020.0
20260502013040 10 118 0.0 0.0 0.00 0.00 0.00 43 1020.2
20260502012538 10 106 0.0 0.0 0.00 0.00 0.00 43 1019.9
20260502012035 10 118 0.0 0.0 0.00 0.00 0.00 40 1019.8
20260502011532 10 122 1.6 3.2 0.00 0.00 0.00 40 1019.9
20260502011028 10 119 0.0 3.2 0.00 0.00 0.00 39 1019.9
20260502010526 10 137 1.6 3.2 0.00 0.00 0.00 39 1019.9
20260502010022 11 145 3.2 3.2 0.00 0.00 0.00 38 1020.0
20260502005520 11 0 3.2 4.8 0.00 0.00 0.00 37 1019.9
20260502005017 11 120 1.6 3.2 0.00 0.00 0.00 37 1019.8
20260502004513 11 275 3.2 8.0 0.00 0.00 0.00 36 1019.8
20260502004010 11 301 6.4 8.0 0.00 0.00 0.00 36 1019.7
20260502003508 11 342 3.2 4.8 0.00 0.00 0.00 36 1019.7
20260502003004 11 326 3.2 4.8 0.00 0.00 0.00 36 1019.8
20260502002501 11 301 4.8 8.0 0.00 0.00 0.00 37 1019.9
20260502001958 11 306 6.4 8.0 0.00 0.00 0.00 37 1020.0
20260502001455 11 8 4.8 8.0 0.00 0.00 0.00 36 1019.8
20260502000953 11 257 4.8 4.8 0.00 0.00 0.00 36 1020.0
20260502000454 11 310 4.8 8.0 0.00 0.00 0.00 37 1019.7
20260501235947 11 152 1.6 3.2 0.00 0.00 0.00 37 1019.8
20260501235443 11 242 4.8 8.0 0.00 0.00 0.00 37 1019.6
20260501234938 11 156 3.2 3.2 0.00 0.00 0.00 37 1019.9
20260501234435 11 272 6.4 9.7 0.00 0.00 0.00 37 1019.8